This demonstration page uses our WeatherBlox Daily Observations layout. Learn more.

Left ArrowRight Arrow

39.01783, -85.05884

Hourly Observations for July 9, 2021

Temp ( °F °C ) Dew Point ( °F °C ) Humidity (%) Winds ( mph kmh ) Pressure ( in mb ) Visibility ( mi km ) Precip ( " mm )
12:52 am 00:52 Partly Cloudy 69 20.6 66 18.9 90 90 SSW 5 7 29.90 1013 10 16 0.00 0.00
1:19 am 01:19 Mostly Cloudy 70 21.1 67 19.4 90 90 W 5 7 29.90 1013 8 13 0.00 0.00
1:26 am 01:26 Mostly Cloudy 70 21.1 67 19.4 90 90 W 6 9 29.90 1013 10 16 0.00 0.00
1:52 am 01:52 Cloudy 70 21.1 67 19.4 90 90 WNW 6 9 29.90 1012 9 14 0.00 0.00
2:32 am 02:32 Cloudy 72 22.2 68 20 87 87 NNW 9 15 29.90 1013 9 14 0.00 0.00
2:52 am 02:52 Cloudy 72 22.2 68 20 87 87 NNW 6 9 29.91 1013 9 14 0.00 0.00
3:52 am 03:52 Cloudy 71 21.7 66 18.9 84 84 NNW 8 13 29.92 1013 10 16 0.00 0.00
4:42 am 04:42 Mostly Cloudy 70 21.1 65 18.3 84 84 NNW 9 15 29.92 1013 10 16 0.00 0.00
4:52 am 04:52 Cloudy 69 20.6 65 18.3 87 87 NW 9 15 29.92 1013 10 16 0.00 0.00
5:15 am 05:15 Cloudy 68 20 63 17.2 84 84 NW 14 22 29.94 1014 10 16 0.00 0.00
5:41 am 05:41 Cloudy 67 19.4 62 16.7 84 84 NNW 9 15 29.95 1014 10 16 0.00 0.00
5:52 am 05:52 Cloudy 67 19.4 62 16.7 84 84 NNW 10 17 29.94 1014 10 16 0.00 0.00
6:52 am 06:52 Cloudy 67 19.4 61 16.1 81 81 NW 8 13 29.96 1014 10 16 0.00 0.00
7:18 am 07:18 Cloudy 66 18.9 60 15.6 81 81 NW 12 19 29.98 1015 10 16 0.00 0.00
7:52 am 07:52 Mostly Cloudy 67 19.4 57 13.9 71 71 NNW 10 17 29.99 1016 10 16 0.00 0.00
8:17 am 08:17 Partly Cloudy 66 18.9 56 13.3 70 70 NNW 10 17 30.01 1016 10 16 0.00 0.00
8:52 am 08:52 Partly Cloudy 67 19.4 56 13.3 68 68 NNW 13 20 30.00 1016 10 16 0.00 0.00
9:52 am 09:52 Partly Cloudy 68 20 56 13.3 65 65 WNW 9 15 30.01 1016 10 16 0.00 0.00
10:52 am 10:52 Partly Cloudy 69 20.6 57 13.9 66 66 WNW 8 13 30.03 1017 7 11 0.00 0.00
11:52 am 11:52 Partly Cloudy 72 22.2 57 13.9 59 59 N 10 17 30.04 1017 10 16 0.00 0.00
12:20 pm 12:20 Mostly Cloudy 73 22.8 58 14.4 59 59 N 10 17 30.04 1017 10 16 0.00 0.00
12:52 pm 12:52 Mostly Cloudy 72 22.2 57 13.9 59 59 NNW 12 19 30.05 1018 10 16 0.00 0.00
1:52 pm 13:52 Partly Cloudy 75 23.9 58 14.4 55 55 VRB 3 6 30.05 1018 10 16 0.00 0.00
2:52 pm 14:52 Partly Cloudy 75 23.9 58 14.4 55 55 WSW 9 15 30.05 1018 10 16 0.00 0.00
3:52 pm 15:52 Mostly Cloudy 74 23.3 58 14.4 57 57 Calm 30.01 1016 10 16 0.00 0.00
4:52 pm 16:52 Cloudy 73 22.8 59 15 62 62 NW 8 13 30.02 1017 10 16 0.00 0.00
5:52 pm 17:52 Mostly Cloudy 73 22.8 60 15.6 64 64 N 8 13 30.01 1016 10 16 0.00 0.00
6:52 pm 18:52 Mostly Cloudy 71 21.7 59 15 66 66 NNW 8 13 30.03 1017 10 16 0.00 0.00
7:52 pm 19:52 Cloudy 70 21.1 59 15 68 68 NNW 8 13 30.05 1018 10 16 0.00 0.00
8:52 pm 20:52 Mostly Cloudy 69 20.6 59 15 70 70 NNW 6 9 30.05 1018 10 16 0.00 0.00
9:52 pm 21:52 Mostly Cloudy 67 19.4 59 15 76 76 NW 3 6 30.07 1018 10 16 0.00 0.00
10:52 pm 22:52 Cloudy 67 19.4 59 15 76 76 N 6 9 30.07 1018 10 16 0.00 0.00
11:52 pm 23:52 Clear 67 19.4 59 15 76 76 N 6 9 30.06 1018 10 16 0.00 0.00

Powered by AerisWeather